EW9135 Weather Reports


Display with metric or nautical units.
time (UTC)temp
F
wind
direction
speed
MPH
gust
MPH
rain 1hr
in
rain 24hr
in
rain mn
in
humidity
%
barometer
mb
20260904184113 74 229 0.0 2.0 0.00 0.00 0.00 13 1021.4
20260904183607 74 322 0.0 2.0 0.00 0.00 0.00 16 1021.1
20260904183101 74 241 0.0 2.0 0.00 0.00 0.00 16 1021.1
20260904182558 74 135 0.0 2.0 0.00 0.00 0.00 17 1021.1
20260904182051 74 284 0.0 1.0 0.00 0.00 0.00 17 1021.4
20260904181545 74 112 0.0 1.0 0.00 0.00 0.00 16 1021.1
20260904181041 74 316 0.0 2.0 0.00 0.00 0.00 17 1021.4
20260904180534 74 228 0.0 2.0 0.00 0.00 0.00 21 1021.4
20260904180030 74 44 0.0 1.0 0.00 0.00 0.00 18 1021.8
20260904180024 73 247 0.0 1.0 0.00 0.00 0.00 21 1021.4
20260904175018 73 231 0.0 1.0 0.00 0.00 0.00 21 1021.4
20260904174512 73 302 0.0 0.0 0.00 0.00 0.00 19 1021.4
20260904174007 73 226 0.0 0.0 0.00 0.00 0.00 19 1021.4
20260904173502 73 194 0.0 0.0 0.00 0.00 0.00 19 1021.4
20260904173457 73 237 0.0 1.0 0.00 0.00 0.00 18 1021.4
20260904172450 73 283 0.0 1.0 0.00 0.00 0.00 19 1021.1
20260904171945 72 206 0.0 1.0 0.00 0.00 0.00 19 1021.1
20260904171439 72 347 0.0 0.0 0.00 0.00 0.00 20 1021.4
20260904170933 72 175 0.0 0.0 0.00 0.00 0.00 21 1021.1
20260904170429 72 68 0.0 0.0 0.00 0.00 0.00 18 1021.4
20260904170423 72 258 0.0 0.0 0.00 0.00 0.00 19 1021.4
20260904165417 71 302 0.0 0.0 0.00 0.00 0.00 19 1021.1
20260904164913 71 4 0.0 0.0 0.00 0.00 0.00 20 1021.1
20260904164907 71 264 0.0 0.0 0.00 0.00 0.00 19 1021.1
20260904163900 71 223 0.0 0.0 0.00 0.00 0.00 19 1021.1
20260904163354 71 267 0.0 0.0 0.00 0.00 0.00 20 1021.1
20260904162849 71 309 0.0 0.0 0.00 0.00 0.00 20 1020.7
20260904162344 70 204 0.0 0.0 0.00 0.00 0.00 20 1020.7
20260904161839 70 174 0.0 0.0 0.00 0.00 0.00 19 1020.7
20260904161833 70 240 0.0 0.0 0.00 0.00 0.00 20 1020.7
20260904160827 69 206 0.0 0.0 0.00 0.00 0.00 20 1020.7
20260904160322 69 202 0.0 0.0 0.00 0.00 0.00 20 1020.7
20260904155816 69 196 0.0 0.0 0.00 0.00 0.00 21 1020.7
20260904155310 69 244 0.0 0.0 0.00 0.00 0.00 21 1020.7
20260904154805 69 203 0.0 0.0 0.00 0.00 0.00 21 1020.7
20260904154300 68 231 0.0 0.0 0.00 0.00 0.00 23 1020.7
20260904153754 68 259 0.0 0.0 0.00 0.00 0.00 24 1020.7
20260904153248 67 209 0.0 0.0 0.00 0.00 0.00 22 1020.7
20260904152743 67 228 0.0 0.0 0.00 0.00 0.00 22 1020.7
20260904152238 67 233 0.0 0.0 0.00 0.00 0.00 23 1021.1
20260904151733 66 198 0.0 0.0 0.00 0.00 0.00 28 1020.7
20260904151226 65 218 0.0 0.0 0.00 0.00 0.00 31 1020.7
20260904150721 65 215 0.0 0.0 0.00 0.00 0.00 30 1020.7
20260904150216 64 202 0.0 0.0 0.00 0.00 0.00 28 1020.7
20260904145709 63 193 0.0 0.0 0.00 0.00 0.00 25 1020.7
20260904145204 62 219 0.0 0.0 0.00 0.00 0.00 31 1020.7
20260904144659 61 197 0.0 0.0 0.00 0.00 0.00 32 1020.4
20260904144245 60 140 0.0 0.0 0.00 0.00 0.00 33 1020.4
20260904144154 60 202 0.0 0.0 0.00 0.00 0.00 32 1020.7
20260904144139 59 189 0.0 0.0 0.00 0.00 0.00 35 1020.4
20260904143243 60 188 0.0 0.0 0.00 0.00 0.00 35 1020.4
20260904142131 59 206 0.0 0.0 0.00 0.00 0.00 37 1020.1
20260904141622 59 233 0.0 0.0 0.00 0.00 0.00 36 1019.7
20260904140615 60 192 0.0 0.0 0.00 0.00 0.00 36 1020.1
20260904140109 60 182 0.0 0.0 0.00 0.00 0.00 36 1020.1
20260904135603 60 124 0.0 0.0 0.00 0.00 0.00 36 1019.7
20260904135100 59 214 0.0 0.0 0.00 0.00 0.00 36 1019.7
20260904135054 59 247 0.0 0.0 0.00 0.00 0.00 36 1019.7
20260904134047 59 219 0.0 0.0 0.00 0.00 0.00 36 1019.7
20260904133542 60 256 0.0 0.0 0.00 0.00 0.00 36 1019.7
20260904133036 60 268 0.0 0.0 0.00 0.00 0.00 36 1019.4
20260904132530 60 210 0.0 0.0 0.00 0.00 0.00 36 1019.7
20260904132025 60 205 0.0 0.0 0.00 0.00 0.00 36 1019.7
20260904131520 60 250 0.0 0.0 0.00 0.00 0.00 36 1019.7
20260904131014 60 238 0.0 0.0 0.00 0.00 0.00 36 1019.4
20260904131009 60 230 0.0 0.0 0.00 0.00 0.00 35 1019.4
20260904130005 60 213 0.0 0.0 0.00 0.00 0.00 35 1019.4
20260904125457 60 215 0.0 0.0 0.00 0.00 0.00 35 1019.4
20260904124952 60 248 0.0 0.0 0.00 0.00 0.00 35 1019.1
20260904124446 60 252 0.0 0.0 0.00 0.00 0.00 36 1019.1
20260904123942 60 255 0.0 0.0 0.00 0.00 0.00 36 1019.1
20260904123936 61 238 0.0 0.0 0.00 0.00 0.00 36 1019.4
20260904122929 61 236 0.0 0.0 0.00 0.00 0.00 36 1019.1
20260904122428 61 250 0.0 0.0 0.00 0.00 0.00 35 1019.4
20260904122420 62 238 0.0 0.0 0.00 0.00 0.00 34 1019.4
20260904121413 62 274 0.0 0.0 0.00 0.00 0.00 34 1019.4
20260904121408 62 248 0.0 0.0 0.00 0.00 0.00 34 1019.4
20260904120403 62 247 0.0 0.0 0.00 0.00 0.00 34 1019.4
20260904115857 62 233 0.0 0.0 0.00 0.00 0.00 33 1019.1
20260904115351 62 205 0.0 0.0 0.00 0.00 0.00 33 1019.4
20260904114846 63 273 0.0 0.0 0.00 0.00 0.00 33 1019.4
20260904114340 63 246 0.0 0.0 0.00 0.00 0.00 33 1019.4
20260904113834 63 238 0.0 0.0 0.00 0.00 0.00 32 1019.4
20260904113329 63 229 0.0 0.0 0.00 0.00 0.00 33 1019.1
20260904113324 64 228 0.0 0.0 0.00 0.00 0.00 33 1019.4
20260904112318 64 222 0.0 0.0 0.00 0.00 0.00 33 1019.4
20260904111813 64 233 0.0 0.0 0.00 0.00 0.00 33 1019.4
20260904111307 64 281 0.0 0.0 0.00 0.00 0.00 32 1019.7
20260904110803 64 254 0.0 0.0 0.00 0.00 0.00 32 1019.4
20260904110758 64 198 0.0 0.0 0.00 0.00 0.00 32 1019.4
20260904105751 64 320 0.0 0.0 0.00 0.00 0.00 32 1019.4
20260904105245 64 248 0.0 0.0 0.00 0.00 0.00 32 1019.4
20260904104739 64 247 0.0 0.0 0.00 0.00 0.00 32 1019.4
20260904104233 64 274 0.0 0.0 0.00 0.00 0.00 32 1019.1
20260904103728 64 309 0.0 0.0 0.00 0.00 0.00 32 1019.1
20260904103223 64 298 0.0 0.0 0.00 0.00 0.00 32 1019.1
20260904102717 64 346 0.0 0.0 0.00 0.00 0.00 32 1019.1
20260904102212 64 247 0.0 0.0 0.00 0.00 0.00 32 1019.1
20260904101705 64 250 0.0 0.0 0.00 0.00 0.00 32 1019.1
20260904101201 64 296 0.0 0.0 0.00 0.00 0.00 32 1019.1
20260904100655 64 204 0.0 0.0 0.00 0.00 0.00 32 1019.1
20260904100149 64 229 0.0 0.0 0.00 0.00 0.00 32 1019.1
20260904095644 64 349 0.0 0.0 0.00 0.00 0.00 32 1019.1
20260904095139 64 234 0.0 0.0 0.00 0.00 0.00 32 1018.7
20260904094633 64 284 0.0 0.0 0.00 0.00 0.00 32 1018.7
20260904094127 64 207 0.0 0.0 0.00 0.00 0.00 33 1019.1
20260904093624 64 248 0.0 0.0 0.00 0.00 0.00 33 1019.1
20260904093618 64 249 0.0 0.0 0.00 0.00 0.00 33 1018.7
20260904092611 64 272 0.0 0.0 0.00 0.00 0.00 33 1019.1
20260904092105 64 192 0.0 0.0 0.00 0.00 0.00 33 1019.1
20260904091600 64 237 0.0 0.0 0.00 0.00 0.00 33 1019.1
20260904091054 64 229 0.0 0.0 0.00 0.00 0.00 34 1018.7
20260904090550 64 272 0.0 0.0 0.00 0.00 0.00 34 1019.1
20260904090043 64 191 0.0 0.0 0.00 0.00 0.00 34 1019.1
20260904085538 64 282 0.0 0.0 0.00 0.00 0.00 34 1019.1
20260904085032 64 245 0.0 0.0 0.00 0.00 0.00 33 1018.7
20260904084527 64 273 0.0 0.0 0.00 0.00 0.00 33 1018.7
20260904084022 64 284 0.0 0.0 0.00 0.00 0.00 33 1018.7
20260904083516 64 278 0.0 0.0 0.00 0.00 0.00 33 1019.1
20260904083010 64 214 0.0 0.0 0.00 0.00 0.00 33 1019.1
20260904083005 65 228 0.0 0.0 0.00 0.00 0.00 33 1018.7
20260904081959 65 20 0.0 0.0 0.00 0.00 0.00 34 1019.1
20260904081454 65 316 0.0 0.0 0.00 0.00 0.00 34 1019.1
20260904080947 65 319 0.0 0.0 0.00 0.00 0.00 34 1019.1
20260904080443 65 232 0.0 0.0 0.00 0.00 0.00 33 1019.4
20260904080434 65 226 0.0 0.0 0.00 0.00 0.00 33 1019.1
20260904080040 65 210 0.0 0.0 0.00 0.00 0.00 33 1019.1
20260904074926 65 277 0.0 0.0 0.00 0.00 0.00 33 1019.1
20260904074422 65 242 0.0 0.0 0.00 0.00 0.00 33 1019.1
20260904073915 65 238 0.0 0.0 0.00 0.00 0.00 33 1019.1
20260904073910 65 282 0.0 0.0 0.00 0.00 0.00 32 1018.7
20260904072904 65 254 0.0 0.0 0.00 0.00 0.00 33 1018.7
20260904072858 65 253 0.0 0.0 0.00 0.00 0.00 33 1018.7
20260904071851 65 224 0.0 0.0 0.00 0.00 0.00 33 1018.7
20260904071346 65 291 0.0 0.0 0.00 0.00 0.00 33 1018.7
20260904070840 65 227 0.0 0.0 0.00 0.00 0.00 33 1018.7
20260904070334 65 209 0.0 0.0 0.00 0.00 0.00 33 1018.7
20260904065830 64 280 0.0 0.0 0.00 0.00 0.00 33 1018.7
20260904065823 64 237 0.0 0.0 0.00 0.00 0.00 34 1019.1
20260904064817 64 248 0.0 0.0 0.00 0.00 0.00 33 1018.7
20260904064314 64 255 0.0 0.0 0.00 0.00 0.00 34 1018.7
20260904063805 64 201 0.0 0.0 0.00 0.00 0.00 34 1018.7
20260904063301 64 259 0.0 0.0 0.00 0.00 0.00 34 1018.7
20260904063256 64 276 0.0 0.0 0.00 0.00 0.00 34 1018.7
20260904062248 64 273 0.0 0.0 0.00 0.00 0.00 35 1018.7
20260904061742 64 323 0.0 0.0 0.00 0.00 0.00 36 1018.7
20260904061237 64 293 0.0 0.0 0.00 0.00 0.00 37 1019.1
20260904060730 64 226 0.0 1.0 0.00 0.00 0.00 38 1018.7
20260904060224 64 226 0.0 1.0 0.00 0.00 0.00 38 1018.7
20260904055720 65 132 0.0 1.0 0.00 0.00 0.00 38 1018.7
20260904055714 65 351 0.0 1.0 0.00 0.00 0.00 38 1018.7
20260904054710 65 239 0.0 1.0 0.00 0.00 0.00 38 1018.7
20260904054705 65 161 0.0 1.0 0.00 0.00 0.00 38 1019.1
20260904053655 66 245 0.0 2.0 0.00 0.00 0.00 38 1018.7
20260904053150 66 299 0.0 2.0 0.00 0.00 0.00 38 1019.1
20260904052646 66 291 0.0 0.0 0.00 0.00 0.00 39 1018.7
20260904052139 66 279 0.0 0.0 0.00 0.00 0.00 37 1018.7
20260904051632 66 296 0.0 1.0 0.00 0.00 0.00 37 1018.7
20260904051128 66 282 0.0 1.0 0.00 0.00 0.00 37 1018.7
20260904050621 66 131 0.0 0.0 0.00 0.00 0.00 37 1018.7
20260904050117 66 256 0.0 0.0 0.00 0.00 0.00 37 1018.7
20260904050111 66 167 0.0 0.0 0.00 0.00 0.00 37 1018.7
20260904045103 66 229 0.0 0.0 0.00 0.00 0.00 37 1018.7
20260904045058 66 285 0.0 0.0 0.00 0.00 0.00 37 1018.7
20260904044052 66 239 0.0 0.0 0.00 0.00 0.00 37 1018.7
20260904043546 66 298 0.0 0.0 0.00 0.00 0.00 37 1018.7
20260904043043 66 305 0.0 0.0 0.00 0.00 0.00 37 1018.7
20260904043038 66 344 0.0 0.0 0.00 0.00 0.00 37 1018.7
20260904042028 66 238 0.0 0.0 0.00 0.00 0.00 37 1018.7
20260904041523 66 209 0.0 0.0 0.00 0.00 0.00 37 1018.7
20260904041018 66 267 0.0 0.0 0.00 0.00 0.00 37 1018.7
20260904040511 67 218 0.0 0.0 0.00 0.00 0.00 36 1018.7
20260904040005 67 216 0.0 0.0 0.00 0.00 0.00 36 1018.7
20260904035501 67 202 0.0 0.0 0.00 0.00 0.00 36 1018.7
20260904034955 67 250 0.0 0.0 0.00 0.00 0.00 36 1018.7
20260904034448 68 218 0.0 0.0 0.00 0.00 0.00 36 1018.7
20260904033943 68 302 0.0 0.0 0.00 0.00 0.00 36 1018.7
20260904033436 69 49 0.0 0.0 0.00 0.00 0.00 36 1018.4
20260904032931 69 80 0.0 0.0 0.00 0.00 0.00 34 1018.4
20260904032426 69 232 0.0 0.0 0.00 0.00 0.00 34 1018.0
20260904031919 70 269 0.0 1.0 0.00 0.00 0.00 34 1018.4
20260904031415 70 230 0.0 1.0 0.00 0.00 0.00 34 1018.0
20260904031409 70 284 0.0 1.0 0.00 0.00 0.00 33 1018.0
20260904030402 71 233 0.0 1.0 0.00 0.00 0.00 32 1018.0
20260904025856 71 208 0.0 0.0 0.00 0.00 0.00 32 1018.0
20260904025351 71 241 0.0 0.0 0.00 0.00 0.00 32 1018.0
20260904024845 71 160 0.0 0.0 0.00 0.00 0.00 31 1018.0
20260904024339 71 251 0.0 0.0 0.00 0.00 0.00 30 1018.0
20260904023834 71 194 0.0 0.0 0.00 0.00 0.00 31 1018.0
20260904023327 71 281 0.0 0.0 0.00 0.00 0.00 30 1018.0
20260904022822 72 243 0.0 0.0 0.00 0.00 0.00 30 1018.0
20260904022317 72 207 0.0 0.0 0.00 0.00 0.00 30 1018.0
20260904021809 72 226 0.0 0.0 0.00 0.00 0.00 29 1018.0
20260904021304 72 312 0.0 0.0 0.00 0.00 0.00 28 1018.0
20260904020759 72 204 0.0 0.0 0.00 0.00 0.00 28 1018.0
20260904020252 72 262 0.0 0.0 0.00 0.00 0.00 28 1018.0
20260904015747 72 232 0.0 0.0 0.00 0.00 0.00 28 1018.0
20260904015242 73 257 0.0 0.0 0.00 0.00 0.00 28 1018.0
20260904014735 73 281 0.0 0.0 0.00 0.00 0.00 28 1018.4
20260904014228 73 228 0.0 0.0 0.00 0.00 0.00 28 1018.0
20260904013724 73 245 0.0 0.0 0.00 0.00 0.00 28 1018.0
20260904013217 73 267 0.0 0.0 0.00 0.00 0.00 27 1018.0
20260904012712 73 308 0.0 0.0 0.00 0.00 0.00 27 1018.4
20260904012206 73 296 0.0 1.0 0.00 0.00 0.00 26 1018.4
20260904011700 73 316 0.0 1.0 0.00 0.00 0.00 26 1018.0
20260904011154 74 286 0.0 1.0 0.00 0.00 0.00 26 1018.0
20260904010650 74 169 0.0 1.0 0.00 0.00 0.00 26 1018.0
20260904010643 74 215 0.0 1.0 0.00 0.00 0.00 25 1018.4
20260904005638 74 221 0.0 2.0 0.00 0.00 0.00 25 1018.4
20260904005132 74 307 0.0 2.0 0.00 0.00 0.00 25 1018.0
20260904004625 75 230 0.0 1.0 0.00 0.00 0.00 25 1018.4
20260904004121 75 11 0.0 1.0 0.00 0.00 0.00 25 1018.0
20260904004116 75 303 0.0 1.0 0.00 0.00 0.00 24 1018.0
20260904003108 75 218 0.0 1.0 0.00 0.00 0.00 24 1018.4
20260904002601 76 344 0.0 1.0 0.00 0.00 0.00 23 1018.0
20260904002057 76 224 0.0 1.0 0.00 0.00 0.00 23 1018.4
20260904001551 76 328 0.0 1.0 0.00 0.00 0.00 23 1018.4
20260904001545 76 337 0.0 1.0 0.00 0.00 0.00 23 1018.0
20260904000540 76 40 0.0 1.0 0.00 0.00 0.00 23 1018.4
20260904000032 77 253 0.0 0.0 0.00 0.00 0.00 22 1018.4
20260903235527 77 58 0.0 0.0 0.00 0.00 0.00 22 1018.4
20260903235022 77 229 0.0 0.0 0.00 0.00 0.00 22 1018.4
20260903234519 78 255 0.0 1.0 0.00 0.00 0.00 22 1018.4
20260903234009 78 249 0.0 1.0 0.00 0.00 0.00 22 1018.4
20260903233505 78 258 0.0 0.0 0.00 0.00 0.00 21 1018.4
20260903232959 78 278 0.0 0.0 0.00 0.00 0.00 20 1018.4
20260903232452 78 232 0.0 0.0 0.00 0.00 0.00 20 1018.4
20260903231947 78 295 0.0 1.0 0.00 0.00 0.00 19 1018.7
20260903231442 78 268 0.0 1.0 0.00 0.00 0.00 20 1018.7
20260903231436 78 245 0.0 1.0 0.00 0.00 0.00 19 1018.4
20260903230430 79 306 0.0 1.0 0.00 0.00 0.00 20 1018.7
20260903225923 80 140 0.0 0.0 0.00 0.00 0.00 21 1018.7
20260903225418 80 202 0.0 0.0 0.00 0.00 0.00 20 1018.7
20260903224912 81 233 0.0 1.0 0.00 0.00 0.00 20 1019.1
20260903224406 81 220 0.0 1.0 0.00 0.00 0.00 20 1019.1
20260903223859 81 224 0.0 1.0 0.00 0.00 0.00 14 1019.1
20260903223355 80 278 0.0 1.0 0.00 0.00 0.00 12 1019.1
20260903223349 80 254 0.0 1.0 0.00 0.00 0.00 12 1019.1
20260903222343 80 287 0.0 1.0 0.00 0.00 0.00 17 1019.1
20260903221838 80 38 0.0 0.0 0.00 0.00 0.00 20 1019.1
20260903221331 79 265 0.0 1.0 0.00 0.00 0.00 18 1019.4
20260903220825 79 260 0.0 1.0 0.00 0.00 0.00 17 1019.4
20260903220320 78 298 0.0 0.0 0.00 0.00 0.00 14 1019.7
20260903215813 77 291 0.0 0.0 0.00 0.00 0.00 18 1019.4
20260903215307 76 181 0.0 0.0 0.00 0.00 0.00 19 1019.7
20260903214803 76 220 0.0 0.0 0.00 0.00 0.00 20 1019.4
20260903214256 75 221 0.0 0.0 0.00 0.00 0.00 20 1019.4
20260903213750 75 304 0.0 0.0 0.00 0.00 0.00 21 1019.7
20260903213245 75 219 0.0 1.0 0.00 0.00 0.00 23 1019.7
20260903212739 75 286 0.0 1.0 0.00 0.00 0.00 23 1019.7
20260903212232 75 244 0.0 1.0 0.00 0.00 0.00 24 1019.7
20260903211728 76 285 0.0 1.0 0.00 0.00 0.00 24 1019.7
20260903211221 76 302 0.0 0.0 0.00 0.00 0.00 23 1019.7
20260903210715 76 255 0.0 0.0 0.00 0.00 0.00 23 1019.7
20260903210210 77 19 0.0 1.0 0.00 0.00 0.00 22 1019.7
20260903205705 77 299 0.0 1.0 0.00 0.00 0.00 22 1020.1
20260903205659 78 145 0.0 1.0 0.00 0.00 0.00 22 1019.7
20260903204653 78 276 0.0 0.0 0.00 0.00 0.00 20 1020.1
20260903204647 79 251 0.0 0.0 0.00 0.00 0.00 20 1020.1
20260903203738 80 215 0.0 0.0 0.00 0.00 0.00 18 1020.1
20260903203641 79 108 0.0 0.0 0.00 0.00 0.00 18 1020.1
20260903203632 80 139 0.0 0.0 0.00 0.00 0.00 16 1019.7
20260903202123 81 237 0.0 0.0 0.00 0.00 0.00 15 1020.1
20260903201618 81 304 0.0 0.0 0.00 0.00 0.00 16 1019.7
20260903201111 81 282 0.0 0.0 0.00 0.00 0.00 11 1019.7
20260903200606 80 147 0.0 0.0 0.00 0.00 0.00 13 1020.1
20260903200101 80 310 0.0 0.0 0.00 0.00 0.00 14 1020.1
20260903195553 79 119 0.0 0.0 0.00 0.00 0.00 11 1020.1
20260903195048 78 203 0.0 0.0 0.00 0.00 0.00 12 1020.1
20260903194543 78 189 0.0 0.0 0.00 0.00 0.00 15 1020.1
20260903194036 78 285 0.0 0.0 0.00 0.00 0.00 20 1020.4
20260903193531 78 181 0.0 1.0 0.00 0.00 0.00 20 1020.4
20260903193026 79 250 0.0 1.0 0.00 0.00 0.00 20 1020.4
20260903192520 79 172 0.0 1.0 0.00 0.00 0.00 20 1020.7
20260903192515 79 196 0.0 0.0 0.00 0.00 0.00 20 1020.7
20260903191508 79 176 0.0 0.0 0.00 0.00 0.00 20 1020.7
20260903191004 79 200 0.0 0.0 0.00 0.00 0.00 12 1020.7
20260903190957 78 116 0.0 0.0 0.00 0.00 0.00 11 1020.7
20260903185951 78 281 0.0 0.0 0.00 0.00 0.00 15 1020.7
20260903185444 77 253 0.0 0.0 0.00 0.00 0.00 15 1020.7
20260903184938 77 205 0.0 0.0 0.00 0.00 0.00 19 1021.1
20260903184434 77 200 0.0 0.0 0.00 0.00 0.00 17 1021.1